Weather in Amsterdam

Netherlands     52°22′21″N   4°53′49″E
temp.,
°C
wind,
m/s
gust,
m/s
humid.,
%
clouds,
%
prec.,
mm/h
press.,
hPa
HPBL,
m
17 april, sat
sat1723:00+5nne3869100 0.0 1029313
02:00+3nne27795 0.0 1029195
05:00+3nne27855 0.0 1028143
08:00+4n27775 0.0 1028264
11:00+10nne46520 0.0 10271239
14:00+11nne55462 0.0 10261526
17:00+11nne55445 0.0 10251322
20:00+7n48646 0.0 1025500
18 april, sun
sun1823:00+4n258712 0.0 1025122
02:00+4n229098 0.0 102457
05:00+3n229230 0.0 102331
08:00+5n128322 0.0 102481
11:00+11ene125999 0.0 1023560
14:00+12nne225787 0.0 1023778
17:00+14nne335047 0.0 10221443
20:00+10nne367965 0.0 1022404
19 april, mon
mon1923:00+7nne269582 0.0 1023167
02:00+6nne259597 0.0 1022127
05:00+5nne249687 0.0 102184
08:00+7n149346 0.0 1021129
11:00+9nne2489100 0.3 1020320
14:00+9nne2386100 0.5 1020541
17:00+10nne1283100 0.1 1019394
20:00+10e118676 0.1 101928
20 april, tue
tue2023:00+8se118973 0.0 101913
02:00+7nw018937 0.0 101811
05:00+6nnw009323 0.0 101810
08:00+8w118852 0.0 101837
11:00+13nw116490 0.0 1018582
14:00+15nw215473 0.1 10171441
17:00+13nw346298 0.0 1017575
20:00+12nw2575100 0.1 1018382
21 april, wed
wed2123:00+10nnw258493 0.0 1018238
02:00+7nnw269385 0.0 1019144
05:00+8n3785100 0.0 1019266
08:00+8nne3785100 0.1 1020395
11:00+9nne577799 0.1 1022778
14:00+12nne55496 0.1 10231243
17:00+11nne55455 0.0 10231278
20:00+8n47610 0.0 1024736